PILOTS ONLINE: 224    ATC ONLINE: 37

KAVX

Catalina Airport

Location

IATA CIB
City Avalon
Country  United States
Latitude 33° 24' 17" N
Longitude 118° 24' 57" W
Elevation 1602 ft
Type Small Airport

Map

Weather

METAR
2014/10/01 09:51
KAVX 010951Z AUTO 15005KT 10SM CLR 18/09 A2980 RMK AO2 SLP064 T01830089
TAF
No TAF available

Runways

04/22 3000 ft / 60 ft

Outbound flights

Callsign Flying to Pilot ATD/STD ETA Aircraft

Inbound flights

Callsign Flying from Pilot ATD ETA Aircraft